Location: Buchloe
(48.0161°N, 10.7316°E)
Time: 09:39:20
(UTC+02:00)

ISS - Pass Details

Date: 23 May 2018
Orbit: 402 x 407 km, 51.6° (Epoch: 27 May)

Event Time Altitude Azimuth Distance (km) Brightness Sun altitude
Rises 22:06:31 0° 237° (WSW) 2,311 0.1 -9.5°
Reaches altitude 10° 22:08:36 10° 234° (SW) 1,454 -0.9 -9.8°
Maximum altitude 22:11:49 64° 152° (SSE) 450 -3.9 -10.1°
Drops below altitude 10° 22:15:04 10° 70° (ENE) 1,458 -1.2 -10.5°
Sets 22:17:09 0° 68° (ENE) 2,320 -0.2 -10.7°
